Easton, MD

9:32 PM EST on December 10, 2016 (GMT -0500)
Easton / Newnam

Weather History for KESN - November, 2012

Change the Weather History Date:

Thursday, November 29, 2012

  Actual Average Record
Temperature  
Mean Temperature 38 °F -  
Max Temperature 50 °F 55 °F 72 °F (1973)
Min Temperature 27 °F 34 °F 16 °F (1955)
Degree Days  
Heating Degree Days 26    
Moisture  
Dew Point 29 °F    
Average Humidity 83    
Maximum Humidity 100    
Minimum Humidity 43    
Precipitation  
Precipitation 0.00 in - - ()
Sea Level Pressure  
Sea Level Pressure 30.42 in    
Wind  
Wind Speed 2 mph (SW)    
Max Wind Speed 12 mph    
Max Gust Speed 18 mph    
Visibility 10 miles    
Events      
Averages and records for this station are not official NWS values.
T = Trace of Precipitation, MM = Missing Value Source: NWS Daily Summary

Daily Weather History Graph

Daily Weather History Graph

Search for Another Location

Airport or City:

Trip Planner

Search our weather history database for the weather conditions in past years. The results will help you decide how hot, cold, wet, or windy it might be!

Date:

Astronomy

Nov. 29, 2012 Rise Set
Actual Time 7:02 AM EST 4:43 PM EST
Civil Twilight 6:32 AM EST 5:12 PM EST
Nautical Twilight 5:59 AM EST 5:45 PM EST
Astronomical Twilight 5:27 AM EST 6:17 PM EST
Moon 5:44 PM EST (11/29) 7:47 AM EST (11/29)
Length of Visible Light 10h 39m
Length of Day
9h 41m
Full, 99% of the Moon is Illuminated
Nov 29
Full
Dec 6
Last Quarter
Dec 13
New
Dec 20
First Quarter
Dec 28
Full

Hourly Weather History & Observations

Time (EST) Temp. Windchill Dew Point Humidity Pressure Visibility Wind Dir Wind Speed Gust Speed Precip Events Conditions
12:12 AM 30.4 °F - 28.8 °F 94% 30.41 in 10.0 mi Calm Calm - N/A   Clear
12:34 AM 28.4 °F 24.6 °F 27.1 °F 95% 30.41 in 10.0 mi WSW 3.5 mph - N/A   Clear
12:55 AM 28.4 °F - 27.1 °F 95% 30.41 in 10.0 mi Calm Calm - N/A   Clear
1:16 AM 29.5 °F - 28.6 °F 96% 30.41 in 10.0 mi Calm Calm - N/A   Clear
1:37 AM 30.2 °F - 28.4 °F 93% 30.41 in 10.0 mi Calm Calm - N/A   Clear
1:38 AM 30.2 °F - 28.6 °F 94% 30.41 in 10.0 mi Calm Calm - N/A   Clear
1:59 AM 31.5 °F - 27.9 °F 87% 30.41 in 10.0 mi Calm Calm - N/A   Clear
2:20 AM 32.9 °F - 28.4 °F 84% 30.41 in 10.0 mi Calm Calm - N/A   Clear
2:41 AM 32.0 °F - 27.5 °F 83% 30.41 in 10.0 mi Calm Calm - N/A   Clear
3:03 AM 32.7 °F - 28.2 °F 83% 30.41 in 10.0 mi Calm Calm - N/A   Clear
3:24 AM 34.7 °F - 28.4 °F 78% 30.41 in 10.0 mi Calm Calm - N/A   Clear
3:45 AM 32.0 °F - 28.2 °F 86% 30.41 in 10.0 mi Calm Calm - N/A   Clear
4:07 AM 32.0 °F - 28.4 °F 87% 30.41 in 10.0 mi Calm Calm - N/A   Clear
4:28 AM 29.7 °F - 28.2 °F 94% 30.42 in 10.0 mi Calm Calm - N/A   Clear
4:49 AM 27.1 °F - 26.1 °F 96% 30.42 in 10.0 mi Calm Calm - N/A   Clear
5:10 AM 27.0 °F - 25.9 °F 96% 30.43 in 10.0 mi Calm Calm - N/A   Clear
5:32 AM 30.9 °F - 27.7 °F 88% 30.43 in 10.0 mi Calm Calm - N/A   Clear
5:50 AM 30.2 °F - 28.4 °F 93% 30.43 in 10.0 mi Calm Calm - N/A   Clear
5:53 AM 29.8 °F - 27.7 °F 92% 30.43 in 10.0 mi Calm Calm - N/A   Clear
6:14 AM 29.3 °F - 27.0 °F 91% 30.44 in 10.0 mi Calm Calm - N/A   Clear
6:36 AM 30.9 °F - 27.7 °F 88% 30.44 in 10.0 mi Calm Calm - N/A   Clear
6:53 AM 30.2 °F - 26.6 °F 86% 30.46 in 10.0 mi Calm Calm - N/A   Scattered Clouds
7:53 AM 35.6 °F - 28.4 °F 75% 30.46 in 10.0 mi Calm Calm - N/A   Scattered Clouds
8:50 AM 39.2 °F - 32.0 °F 75% 30.48 in 10.0 mi Calm Calm - N/A   Scattered Clouds
9:53 AM 44.6 °F 40.7 °F 30.2 °F 57% 30.49 in 10.0 mi West 6.9 mph - N/A   Scattered Clouds
11:53 AM 46.4 °F 41.1 °F 28.4 °F 50% 30.47 in 10.0 mi WNW 11.5 mph 18.4 mph N/A   Clear
12:55 PM 48.2 °F - 28.4 °F 46% 30.44 in 10.0 mi NW 11.5 mph - N/A   Clear
1:53 PM 48.2 °F - 28.4 °F 46% 30.42 in 10.0 mi NW 11.5 mph - N/A   Clear
2:50 PM 50.0 °F - 28.4 °F 43% 30.40 in 10.0 mi WNW 5.8 mph - N/A   Clear
3:47 PM 46.4 °F 42.4 °F 28.4 °F 50% 30.39 in 10.0 mi SW 8.1 mph - N/A   Clear
4:54 PM 41.0 °F 38.0 °F 28.4 °F 61% 30.39 in 10.0 mi South 4.6 mph - N/A   Clear
5:45 PM 39.2 °F 35.9 °F 28.4 °F 65% 30.40 in 10.0 mi SW 4.6 mph - N/A   Clear
6:45 PM 37.4 °F 32.8 °F 30.2 °F 75% 30.41 in 10.0 mi SSW 5.8 mph - N/A   Clear
8:49 PM 35.6 °F 31.7 °F 32.0 °F 87% 30.41 in 10.0 mi SSW 4.6 mph - N/A   Clear
9:49 PM 34.7 °F 31.8 °F 33.6 °F 96% 30.42 in 10.0 mi SW 3.5 mph - N/A   Clear
10:10 PM 34.5 °F - 33.8 °F 97% 30.41 in 10.0 mi Calm Calm - N/A   Clear
10:31 PM 34.7 °F - 34.2 °F 98% 30.41 in 10.0 mi Calm Calm - N/A   Clear
10:53 PM 33.8 °F 30.8 °F 33.8 °F 100% 30.40 in 10.0 mi South 3.5 mph - N/A   Clear
11:14 PM 34.2 °F 30.0 °F 34.2 °F 100% 30.40 in 10.0 mi South 4.6 mph - N/A   Clear
11:35 PM 34.0 °F 31.0 °F 34.0 °F 100% 30.40 in 10.0 mi South 3.5 mph - N/A   Clear
11:57 PM 32.0 °F - 32.0 °F 100% 30.40 in 7.0 mi Calm Calm - N/A   Clear